Location: Chochol
(49.7771°N, 14.9780°E)
Time: 10:24:03
(UTC+00:00)

Cosmos-2242 - Pass Details

Date: 09 April 2020
Orbit: 590 x 618 km, 82.5° (Epoch: 24 May)

Event Time Altitude Azimuth Distance (km) Brightness Sun altitude
Exits shadow 20:08:42 52° 90° (E) 760 3.2 -21.1°
Drops below altitude 10° 20:12:53 10° 19° (NNE) 1,980 5.9 -21.6°
Sets 20:15:09 0° 14° (NNE) 2,894 6.9 -21.9°
